Regional Weather Roundup
Issued by NWS

Home | Current Version | Previous Version | Graphics & Text | Print | Product List | Glossary On
Versions: 1 2 3 4 5 6 7 8 9 10 11 12 13 14 15 16 17 18 19 20 21 22 23 24 25 26 27 28 29 30 31 32 33 34 35 36 37 38 39 40 41 42 43 44 45 46 47 48 49 50
000
ASUS43 KMKX 250421
RWRWI

WISCONSIN REGIONAL WEATHER ROUNDUP
NATIONAL WEATHER SERVICE MILWAUKEE/SULLIVAN WI
1100 PM CDT TUE MAY 24 2016

NOTE: "FAIR" INDICATES FEW OR NO CLOUDS BELOW 12,000 FEET WITH NO
SIGNIFICANT WEATHER AND/OR OBSTRUCTIONS TO VISIBILITY.

WIZ001-002-006>008-014>016-023>028-250500-
NORTHWEST WISCONSIN

CITY           SKY/WX    TMP DP  RH WIND       PRES   REMARKS
SUPERIOR ARPT  FOG       46  46 100 NE10      30.02R VSB 1/2
ASHLAND        FOG       48  48 100 N8        30.03R VSB 1/4
HAYWARD        CLEAR     61  58  90 NE6       29.98R
SIREN          CLEAR     60  57  91 CALM      29.95R
CUMBERLAND     CLEAR     61  55  82 CALM      29.96S
RICE LAKE      CLEAR     60  56  87 CALM      29.97S
CHETEK         CLEAR     60  58  95 CALM      29.95S
LADYSMITH      CLEAR     63  59  86 E5        29.98F
EAU CLAIRE     CLEAR     61  55  81 CALM      29.93S
MENOMONIE      CLEAR     65  57  77 NE3       29.94S
NEW RICHMOND   PTCLDY    65  55  69 SE3       29.94S
OSCEOLA        CLEAR     63  59  88 E3        29.96R
$$

WIZ003>005-009-010-017-018-250500-
NORTH CENTRAL WISCONSIN

CITY           SKY/WX    TMP DP  RH WIND       PRES   REMARKS
MANITOWISH WTR NOT AVBL
ARBOR VITAE    CLEAR     59  57  94 CALM      30.00S FOG
WOODRUFF       CLEAR     59  57  94 CALM      30.00S FOG
RHINELANDER    CLEAR     58  56  93 CALM      30.00S
EAGLE RIVER    FOG       56  56 100 CALM      30.00R VSB 3/4
LAND O LAKES   CLOUDY    60  60  99 CALM      30.01S
PHILLIPS       CLEAR     58  57  99 CALM      29.99R
TOMAHAWK       CLEAR     56  54  92 CALM      30.00S
MEDFORD        PTCLDY    58  58 100 NE5       29.98R
MERRILL        CLEAR     60  57  92 CALM      29.99S
$$

WIZ029-030-035-036-043>047-250500-
CENTRAL WISCONSIN

CITY           SKY/WX    TMP DP  RH WIND       PRES   REMARKS
WAUSAU         PTCLDY    65  58  78 CALM      29.95R
MOSINEE        CLEAR     63  59  88 CALM      29.98S
MARSHFIELD     CLEAR     66  56  70 CALM      29.95S
STEVENS POINT  CLEAR     59  54  84 CALM      29.96F
WAUPACA        CLEAR     65  57  76 CALM      29.96S
WAUTOMA        CLEAR     61  57  87 CALM      29.96R
WISC RAPIDS    CLEAR     61  56  83 CALM      29.96S
CAMP DOUGLAS   NOT AVBL
$$

WIZ011>013-019>022-031-037>040-048>050-250500-
NORTHEAST WISCONSIN

CITY           SKY/WX    TMP DP  RH WIND       PRES   REMARKS
ANTIGO         CLEAR     59  56  88 CALM      29.99R
SHAWANO        CLEAR     63  58  82 CALM      29.95S
OCONTO         CLEAR    N/A N/A N/A CALM      29.94S
STURGEON BAY   NOT AVBL
GREEN BAY      CLEAR     65  58  78 CALM      29.94S
MANITOWOC      CLEAR     60  56  86 CALM      29.95S
APPLETON       PTCLDY    64  54  68 CALM      29.94R
CLINTONVILLE   CLEAR     63  52  67 CALM      29.94S
OSHKOSH        CLEAR     66  58  75 SW3       29.95S
$$

WIZ032>034-041-042-053>061-250500-
SOUTHWEST WISCONSIN

CITY           SKY/WX    TMP DP  RH WIND       PRES   REMARKS
LA CROSSE      CLEAR     69  59  70 SE8       29.92S
SPARTA         CLEAR     58  55  91 CALM      29.95S
VIROQUA        CLEAR     68  55  62 E6        29.95S
BOSCOBEL       CLEAR     63  60  90 CALM      29.93S
PRAIRIE DU CHI CLEAR     66  60  81 CALM      29.92S
PLATTEVILLE    CLEAR     71  60  67 NE3       29.95S
$$

WIZ056-057-062-063-064-067-068-250500-
SOUTH CENTRAL WISCONSIN

CITY           SKY/WX    TMP DP  RH WIND       PRES   REMARKS
REEDSBURG      CLEAR     63  60  90 CALM      29.94S
BARABOO/DELLS  CLEAR     62  56  79 CALM      29.95S
LONE ROCK      CLEAR     64  59  83 CALM      29.94S
MINERAL POINT  CLEAR     73  55  53 E6        29.95F
MADISON        PTCLDY    67  60  78 CALM      29.95S
MIDDLETON      PTCLDY    66  59  78 CALM      29.96S
WATERTOWN      CLEAR     63  63 100 CALM      29.95F
MONROE         CLOUDY    70  59  68 E5        29.95F
JANESVILLE     CLOUDY    68  61  77 CALM      29.96R
$$

WIZ051-052-058>065-066-070>072-250500-
SOUTHEAST WISCONSIN

CITY           SKY/WX    TMP DP  RH WIND       PRES   REMARKS
MILWAUKEE      PTCLDY    63  49  60 SE3       29.96S
WAUKESHA       PTCLDY    64  63  94 CALM      29.98S
MILWAUKEE/TIMM MOCLDY    64  61  88 CALM      29.97S
RACINE         CLOUDY    63  48  58 SE3       29.98S
BURLINGTON     CLOUDY    68  60  75 CALM      29.97S
KENOSHA        MOCLDY    63  52  67 N3        29.96S
FOND DU LAC    CLEAR     62  60  93 CALM      29.95S
SHEBOYGAN      CLEAR     63  56  78 CALM      29.96S
WEST BEND      CLEAR     63  59  88 CALM      29.97S
JUNEAU         CLEAR     66  58  74 SE6       29.97S
$$

LSZ147-162-250500-
LAKE SUPERIOR

STATION/POSITION TIME  TEMP    WIND        PRES    WAVE
                       AIR SEA DIR/SP/G            HT/PER
                 (UTC) (F)     (DEG/KT/KT) (MB)    (FT/S)
W MID LAKE BUOY  0350   41 38  100/ 12/ 14 1017.0R   2/ 4
DEVILS ISLAND    0400   45      90/ 11/ 12 1017.7R
PORT WING        0240   45      30/ 15/ 22 1015.6
SAXON HARBOR     0300   47     350/  2/  3 1015.9R
$$

LMZ867-665-643>646-250500-
LAKE MICHIGAN

STATION/POSITION TIME  TEMP    WIND        PRES    WAVE
                       AIR SEA DIR/SP/G            HT/PER
                 (UTC) (F)     (DEG/KT/KT) (MB)    (FT/S)
CHAMBERS ISLAND  0300   57      10/  1/  6 1014.2R
N MID LAKE BUOY  0350   48 44  170/  6/  6 1014.1S   2/ 5
NORTHPORT PIER   0300   53     170/  6/  8 1013.9F
SISTER BAY       0319   57     160/  6/  8   N/A
ALGOMA LAKESHORE 0317             CALM       N/A
KEWAUNEE LAKESHO 0300   56     180/  5/  5 1013.3R
SHEBOYGAN LAKESH 0400   63     230/  4/  4 1014.5S
PORT WASHINGTON  0340   60      CALM  /  5 1015.2R
S MID LAKE BUOY  0350   63 49   90/  2/  2 1014.7R   0
KENOSHA   LAKESH 0400   58     360/  4/  5 1014.6S
$$

TC  - TEMPERATURE IN CELSIUS
VSB - VISIBILITY IN STATUTE MILES
WCI - WIND CHILL INDEX
HX  - HEAT INDEX





USA.gov is the U.S. government's official web portal to all federal, state and local government web resources and services.